QPF
0.00 0.00 0.00 0.00 0.00 0.01 0.01 0.01 0.01 0.02 0.02 0.02 0.01 0.01 0.01 0.01 0.01 0.02 0.03 0.05 0.05 0.04 0.03 0.02 0.01 0.01 0.01 0.01 0.01 0.01 0.01 0.02 0.02 0.01 0.01 0.01 0.01 0.01 0.01 0.01 0.01 0.01 0.01
0.00 0.01 0.01 0.01 0.01 0.01 0.01 0.01 0.03 0.03 0.03 0.02 0.02 0.02 0.02 0.02 0.02 0.02 0.02 0.02 0.03 0.02 0.02 0.01 0.01 0.01 0.01 0.02 0.02 0.02 0.03 0.03 0.04 0.04 0.03 0.03 0.03 0.02 0.02 0.02 0.01 0.01 0.01
0.00 0.00 0.01 0.01 0.00 0.01 0.02 0.03 0.03 0.03 0.03 0.02 0.02 0.02 0.03 0.03 0.03 0.04 0.03 0.02 0.01 0.01 0.01 0.01 0.01 0.01 0.01 0.01 0.02 0.02 0.02 0.03 0.03 0.04 0.04 0.04 0.04 0.03 0.03 0.03 0.02 0.02 0.02
0.00 0.00 0.01 0.01 0.01 0.01 0.01 0.02 0.02 0.02 0.03 0.03 0.03 0.03 0.03 0.03 0.03 0.03 0.02 0.02 0.01 0.01 0.01 0.01 0.00 0.00 0.01 0.01 0.01 0.01 0.01 0.01 0.02 0.02 0.02 0.02 0.03 0.03 0.02 0.02 0.02 0.03 0.02
0.01 0.01 0.02 0.01 0.01 0.01 0.01 0.01 0.01 0.01 0.02 0.02 0.03 0.04 0.03 0.02 0.02 0.03 0.02 0.02 0.01 0.00 0.00 0.00 0.00 0.00 0.00 0.01 0.01 0.01 0.01 0.01 0.01 0.01 0.02 0.02 0.02 0.02 0.02 0.02 0.02 0.02 0.02
0.05 0.04 0.04 0.03 0.02 0.02 0.02 0.01 0.01 0.01 0.01 0.01 0.03 0.03 0.02 0.01 0.01 0.02 0.01 0.01 0.01 0.00 0.00 0.00 0.00 0.00 0.01 0.01 0.01 0.01 0.01 0.01 0.01 0.01 0.01 0.02 0.02 0.02 0.02 0.02 0.02 0.02 0.02
0.10 0.08 0.06 0.04 0.03 0.02 0.01 0.01 0.01 0.01 0.00 0.01 0.01 0.02 0.01 0.01 0.01 0.01 0.01 0.00 0.00 0.00 0.00 0.00 0.00 0.00 0.00 0.00 0.00 0.00 0.00 0.00 0.00 0.00 0.00 0.01 0.01 0.01 0.01 0.01 0.01 0.01 0.02
0.14 0.10 0.07 0.06 0.04 0.03 0.02 0.01 0.01 0.01 0.01 0.00 0.00 0.01 0.01 0.01 0.00 0.00 0.00 0.00 0.00 0.00 0.00 0.00 0.00 0.00 0.00 0.00 0.00 0.00 0.00 0.00 0.00 0.00 0.00 0.00 0.00 0.00 0.00 0.00 0.00 0.01 0.01
0.15 0.12 0.10 0.08 0.05 0.03 0.02 0.01 0.01 0.01 0.00 0.00 0.00 0.01 0.01 0.01 0.01 0.00 0.00 0.00 0.00 0.00 0.00 0.00 0.00 0.00 0.00 0.00 0.00 0.00 0.00 0.00 0.00 0.00 0.00 0.00 0.00 0.00 0.00 0.00 0.00 0.00 0.00
0.20 0.17 0.13 0.08 0.05 0.03 0.02 0.01 0.01 0.00 0.00 0.00 0.00 0.00 0.00 0.00 0.01 0.01 0.00 0.00 0.00 0.00 0.00 0.00 0.00 0.00 0.00 0.00 0.00 0.00 0.00 0.00 0.00 0.00 0.00 0.00 0.00 0.00 0.00 0.00 0.00 0.00 0.00
0.20 0.16 0.10 0.07 0.05 0.03 0.02 0.01 0.00 0.00 0.00 0.00 0.00 0.01 0.01 0.01 0.01 0.01 0.00 0.00 0.00 0.00 0.00 0.00 0.00 0.00 0.00 0.00 0.00 0.00 0.00 0.00 0.00 0.00 0.00 0.00 0.00 0.00 0.00 0.00 0.00 0.00 0.00
0.18 0.12 0.08 0.06 0.04 0.02 0.01 0.01 0.00 0.00 0.00 0.00 0.00 0.00 0.00 0.01 0.01 0.01 0.00 0.00 0.00 0.00 0.00 0.00 0.00 0.00 0.00 0.00 0.00 0.00 0.00 0.00 0.00 0.00 0.00 0.00 0.00 0.00 0.00 0.00 0.00 0.01 0.01
0.16 0.11 0.07 0.05 0.03 0.02 0.01 0.00 0.00 0.00 0.00 0.00 0.00 0.00 0.00 0.00 0.00 0.00 0.00 0.00 0.00 0.00 0.00 0.00 0.00 0.00 0.00 0.00 0.00 0.00 0.00 0.00 0.00 0.00 0.00 0.00 0.00 0.00 0.00 0.00 0.00 0.01 0.01
0.15 0.10 0.06 0.04 0.03 0.02 0.01 0.00 0.00 0.00 0.00 0.00 0.00 0.00 0.00 0.00 0.00 0.00 0.00 0.00 0.00 0.00 0.00 0.00 0.00 0.00 0.00 0.00 0.00 0.00 0.00 0.00 0.00 0.00 0.00 0.00 0.00 0.00 0.00 0.00 0.00 0.00 0.01
0.11 0.08 0.05 0.05 0.04 0.02 0.01 0.00 0.00 0.00 0.00 0.00 0.00 0.00 0.00 0.00 0.00 0.00 0.00 0.00 0.00 0.00 0.00 0.00 0.00 0.00 0.00 0.00 0.00 0.00 0.00 0.00 0.00 0.00 0.00 0.00 0.00 0.00 0.00 0.00 0.00 0.01 0.01
0.06 0.04 0.02 0.02 0.01 0.00 0.00 0.00 0.00 0.00 0.00 0.00 0.00 0.00 0.00 0.00 0.00 0.00 0.00 0.00 0.00 0.00 0.00 0.00 0.00 0.00 0.00 0.00 0.00 0.00 0.00 0.00 0.00 0.00 0.00 0.00 0.00 0.00 0.01 0.01 0.01 0.01 0.01
0.01 0.01 0.00 0.00 0.00 0.00 0.00 0.00 0.00 0.00 0.00 0.00 0.00 0.00 0.00 0.00 0.00 0.00 0.00 0.00 0.00 0.00 0.00 0.00 0.00 0.00 0.00 0.00 0.00 0.00 0.00 0.00 0.00 0.00 0.00 0.00 0.00 0.00 0.01 0.01 0.01 0.01 0.01
0.00 0.00 0.00 0.00 0.00 0.00 0.00 0.00 0.00 0.00 0.00 0.00 0.00 0.00 0.00 0.00 0.00 0.00 0.00 0.00 0.00 0.00 0.00 0.00 0.00 0.00 0.00 0.00 0.00 0.00 0.00 0.00 0.00 0.00 0.00 0.00 0.00 0.01 0.01 0.01 0.01 0.01 0.01
0.00 0.00 0.00 0.00 0.00 0.00 0.00 0.00 0.00 0.00 0.00 0.00 0.00 0.00 0.00 0.00 0.00 0.00 0.00 0.00 0.00 0.00 0.00 0.00 0.00 0.00 0.00 0.00 0.00 0.00 0.00 0.00 0.00 0.00 0.00 0.00 0.00 0.00 0.01 0.01 0.00 0.00 0.00
0.00 0.00 0.00 0.00 0.00 0.00 0.00 0.00 0.00 0.00 0.00 0.00 0.00 0.00 0.00 0.00 0.00 0.00 0.00 0.00 0.00 0.00 0.00 0.00 0.00 0.00 0.00 0.00 0.00 0.00 0.00 0.00 0.00 0.00 0.00 0.00 0.00 0.00 0.00 0.00 0.01 0.01 0.01
0.00 0.00 0.00 0.00 0.00 0.00 0.00 0.00 0.00 0.00 0.00 0.00 0.00 0.00 0.00 0.00 0.01 0.00 0.00 0.00 0.00 0.00 0.00 0.00 0.00 0.00 0.00 0.00 0.01 0.01 0.01 0.00 0.00 0.00 0.00 0.00 0.00 0.00 0.00 0.00 0.00 0.01 0.01
0.00 0.00 0.00 0.00 0.00 0.00 0.00 0.00 0.00 0.00 0.00 0.00 0.00 0.00 0.00 0.00 0.00 0.00 0.00 0.00 0.00 0.00 0.00 0.01 0.01 0.01 0.01 0.01 0.01 0.01 0.01 0.01 0.01 0.00 0.00 0.00 0.00 0.00 0.00 0.00 0.00 0.00 0.00
0.00 0.00 0.00 0.00 0.00 0.00 0.00 0.00 0.00 0.00 0.00 0.00 0.00 0.00 0.00 0.00 0.00 0.00 0.00 0.00 0.00 0.00 0.01 0.02 0.01 0.01 0.01 0.01 0.01 0.01 0.01 0.01 0.01 0.00 0.00 0.00 0.00 0.00 0.00 0.00 0.00 0.00 0.00
0.00 0.00 0.00 0.00 0.00 0.00 0.00 0.00 0.00 0.00 0.00 0.00 0.00 0.00 0.00 0.00 0.00 0.00 0.00 0.00 0.00 0.00 0.00 0.01 0.01 0.01 0.01 0.01 0.01 0.01 0.01 0.01 0.00 0.00 0.01 0.01 0.00 0.00 0.00 0.00 0.00 0.00 0.00
0.00 0.00 0.00 0.00 0.00 0.00 0.00 0.00 0.00 0.00 0.00 0.00 0.00 0.00 0.00 0.00 0.00 0.00 0.00 0.00 0.00 0.00 0.00 0.00 0.00 0.00 0.01 0.01 0.01 0.01 0.01 0.02 0.02 0.01 0.00 0.01 0.00 0.00 0.00 0.00 0.00 0.00 0.00
0.00 0.00 0.00 0.00 0.00 0.00 0.00 0.00 0.00 0.00 0.00 0.00 0.00 0.00 0.00 0.00 0.00 0.00 0.00 0.00 0.00 0.00 0.00 0.00 0.00 0.00 0.01 0.01 0.01 0.01 0.02 0.03 0.03 0.02 0.02 0.02 0.02 0.01 0.01 0.00 0.00 0.00 0.01
MSLP
1016.70 1017.01 1017.25 1017.43 1017.57 1017.69 1017.81 1017.93 1018.05 1018.17 1018.29 1018.40 1018.50 1018.59 1018.68 1018.77 1018.88 1019.00 1019.12 1019.25 1019.39 1019.53 1019.67 1019.82 1019.97 1020.13 1020.29 1020.45 1020.59 1020.69 1020.76 1020.77 1020.74 1020.67 1020.60 1020.52 1020.47 1020.45 1020.47 1020.51 1020.57 1020.63 1020.68
1016.46 1016.77 1017.04 1017.26 1017.47 1017.67 1017.86 1018.05 1018.25 1018.43 1018.60 1018.76 1018.89 1019.00 1019.11 1019.20 1019.29 1019.39 1019.49 1019.58 1019.69 1019.79 1019.91 1020.03 1020.17 1020.32 1020.47 1020.61 1020.73 1020.82 1020.86 1020.85 1020.81 1020.73 1020.65 1020.57 1020.51 1020.49 1020.49 1020.51 1020.54 1020.56 1020.57
1016.20 1016.51 1016.81 1017.09 1017.37 1017.65 1017.93 1018.22 1018.49 1018.74 1018.97 1019.17 1019.34 1019.48 1019.59 1019.69 1019.77 1019.83 1019.89 1019.94 1020.00 1020.05 1020.12 1020.21 1020.31 1020.43 1020.56 1020.68 1020.78 1020.85 1020.88 1020.87 1020.82 1020.75 1020.67 1020.60 1020.55 1020.53 1020.53 1020.54 1020.55 1020.56 1020.54
1015.98 1016.30 1016.62 1016.96 1017.32 1017.68 1018.05 1018.41 1018.75 1019.06 1019.33 1019.57 1019.77 1019.93 1020.05 1020.15 1020.21 1020.25 1020.27 1020.27 1020.26 1020.25 1020.26 1020.29 1020.34 1020.42 1020.51 1020.61 1020.69 1020.75 1020.78 1020.77 1020.73 1020.67 1020.61 1020.57 1020.54 1020.54 1020.56 1020.58 1020.59 1020.59 1020.55
1015.86 1016.19 1016.55 1016.94 1017.35 1017.78 1018.21 1018.62 1019.00 1019.34 1019.64 1019.90 1020.11 1020.29 1020.42 1020.52 1020.57 1020.59 1020.56 1020.51 1020.44 1020.36 1020.29 1020.25 1020.24 1020.27 1020.32 1020.38 1020.45 1020.50 1020.54 1020.54 1020.53 1020.50 1020.48 1020.47 1020.48 1020.51 1020.56 1020.60 1020.62 1020.62 1020.58
1015.91 1016.25 1016.63 1017.05 1017.50 1017.96 1018.42 1018.84 1019.23 1019.58 1019.88 1020.13 1020.35 1020.53 1020.67 1020.77 1020.82 1020.82 1020.77 1020.66 1020.53 1020.38 1020.23 1020.11 1020.03 1020.00 1020.00 1020.04 1020.09 1020.14 1020.19 1020.22 1020.24 1020.25 1020.28 1020.31 1020.37 1020.44 1020.52 1020.59 1020.63 1020.63 1020.59
1016.15 1016.49 1016.88 1017.31 1017.77 1018.23 1018.68 1019.09 1019.45 1019.77 1020.04 1020.28 1020.49 1020.68 1020.83 1020.94 1021.00 1020.99 1020.92 1020.78 1020.59 1020.36 1020.14 1019.94 1019.79 1019.68 1019.64 1019.64 1019.68 1019.73 1019.80 1019.86 1019.92 1019.98 1020.05 1020.13 1020.22 1020.33 1020.44 1020.53 1020.58 1020.59 1020.55
1016.58 1016.91 1017.30 1017.72 1018.16 1018.59 1018.99 1019.36 1019.67 1019.94 1020.17 1020.39 1020.59 1020.79 1020.96 1021.09 1021.17 1021.17 1021.08 1020.91 1020.68 1020.40 1020.10 1019.83 1019.59 1019.43 1019.33 1019.30 1019.31 1019.37 1019.44 1019.53 1019.62 1019.72 1019.82 1019.94 1020.06 1020.19 1020.31 1020.41 1020.47 1020.48 1020.43
1017.16 1017.48 1017.84 1018.24 1018.64 1019.03 1019.37 1019.68 1019.92 1020.14 1020.34 1020.53 1020.73 1020.93 1021.13 1021.29 1021.39 1021.41 1021.33 1021.15 1020.88 1020.55 1020.19 1019.84 1019.54 1019.31 1019.16 1019.09 1019.08 1019.12 1019.19 1019.29 1019.40 1019.51 1019.64 1019.76 1019.90 1020.03 1020.14 1020.23 1020.28 1020.28 1020.21
1017.83 1018.14 1018.48 1018.84 1019.20 1019.53 1019.82 1020.06 1020.25 1020.42 1020.58 1020.76 1020.96 1021.18 1021.40 1021.60 1021.73 1021.77 1021.70 1021.51 1021.22 1020.85 1020.45 1020.05 1019.69 1019.39 1019.18 1019.06 1019.01 1019.02 1019.07 1019.15 1019.25 1019.36 1019.48 1019.60 1019.71 1019.82 1019.91 1019.97 1019.99 1019.96 1019.88
1018.54 1018.83 1019.15 1019.47 1019.79 1020.08 1020.32 1020.51 1020.66 1020.79 1020.93 1021.10 1021.30 1021.54 1021.79 1022.01 1022.17 1022.24 1022.18 1022.00 1021.69 1021.31 1020.87 1020.42 1020.01 1019.66 1019.39 1019.21 1019.10 1019.06 1019.07 1019.11 1019.17 1019.25 1019.33 1019.41 1019.48 1019.55 1019.60 1019.62 1019.60 1019.53 1019.42
1019.24 1019.51 1019.81 1020.12 1020.41 1020.66 1020.87 1021.02 1021.15 1021.26 1021.38 1021.54 1021.75 1022.00 1022.26 1022.50 1022.68 1022.75 1022.71 1022.53 1022.23 1021.84 1021.38 1020.91 1020.46 1020.06 1019.73 1019.49 1019.32 1019.21 1019.14 1019.12 1019.11 1019.12 1019.14 1019.17 1019.19 1019.19 1019.18 1019.15 1019.09 1018.98 1018.84
1019.90 1020.17 1020.47 1020.76 1021.04 1021.28 1021.46 1021.60 1021.70 1021.79 1021.91 1022.06 1022.26 1022.49 1022.75 1022.98 1023.16 1023.24 1023.20 1023.03 1022.74 1022.35 1021.90 1021.42 1020.95 1020.52 1020.14 1019.83 1019.58 1019.38 1019.23 1019.12 1019.03 1018.96 1018.90 1018.85 1018.80 1018.74 1018.67 1018.58 1018.47 1018.33 1018.16
1020.54 1020.82 1021.11 1021.41 1021.68 1021.91 1022.08 1022.20 1022.29 1022.36 1022.46 1022.58 1022.75 1022.96 1023.17 1023.38 1023.53 1023.60 1023.56 1023.40 1023.13 1022.76 1022.33 1021.87 1021.40 1020.95 1020.53 1020.16 1019.83 1019.54 1019.29 1019.08 1018.89 1018.72 1018.58 1018.45 1018.33 1018.20 1018.07 1017.93 1017.77 1017.59 1017.40
1021.17 1021.46 1021.77 1022.06 1022.33 1022.55 1022.72 1022.82 1022.89 1022.93 1022.99 1023.07 1023.18 1023.33 1023.48 1023.63 1023.74 1023.78 1023.73 1023.58 1023.34 1023.01 1022.62 1022.19 1021.74 1021.28 1020.84 1020.41 1020.01 1019.63 1019.28 1018.97 1018.68 1018.42 1018.19 1017.98 1017.79 1017.60 1017.42 1017.22 1017.02 1016.80 1016.59
1021.82 1022.12 1022.44 1022.74 1023.01 1023.21 1023.36 1023.43 1023.46 1023.46 1023.46 1023.47 1023.51 1023.57 1023.65 1023.72 1023.77 1023.77 1023.70 1023.56 1023.35 1023.07 1022.73 1022.35 1021.93 1021.48 1021.03 1020.56 1020.09 1019.64 1019.20 1018.79 1018.41 1018.06 1017.76 1017.48 1017.23 1016.99 1016.76 1016.51 1016.26 1016.01 1015.77
1022.50 1022.82 1023.14 1023.44 1023.69 1023.87 1023.98 1024.02 1024.00 1023.94 1023.86 1023.79 1023.74 1023.71 1023.68 1023.67 1023.64 1023.59 1023.50 1023.37 1023.19 1022.96 1022.67 1022.34 1021.96 1021.54 1021.08 1020.59 1020.08 1019.56 1019.04 1018.55 1018.10 1017.69 1017.32 1017.00 1016.70 1016.41 1016.13 1015.84 1015.55 1015.25 1014.97
1023.20 1023.53 1023.84 1024.12 1024.34 1024.49 1024.56 1024.54 1024.47 1024.34 1024.19 1024.04 1023.89 1023.76 1023.64 1023.54 1023.44 1023.33 1023.21 1023.08 1022.92 1022.72 1022.49 1022.21 1021.87 1021.47 1021.01 1020.51 1019.96 1019.40 1018.83 1018.28 1017.78 1017.32 1016.91 1016.54 1016.21 1015.89 1015.56 1015.23 1014.89 1014.55 1014.22
1023.90 1024.21 1024.51 1024.76 1024.94 1025.04 1025.05 1024.99 1024.85 1024.67 1024.46 1024.23 1024.00 1023.78 1023.57 1023.38 1023.21 1023.05 1022.89 1022.74 1022.59 1022.42 1022.21 1021.96 1021.65 1021.28 1020.83 1020.32 1019.76 1019.16 1018.57 1017.99 1017.45 1016.96 1016.53 1016.14 1015.78 1015.42 1015.07 1014.69 1014.30 1013.90 1013.52
1024.53 1024.83 1025.09 1025.30 1025.43 1025.48 1025.44 1025.33 1025.15 1024.92 1024.66 1024.37 1024.09 1023.80 1023.52 1023.26 1023.02 1022.80 1022.60 1022.42 1022.24 1022.07 1021.88 1021.64 1021.34 1020.98 1020.54 1020.02 1019.45 1018.85 1018.25 1017.66 1017.11 1016.61 1016.17 1015.77 1015.39 1015.01 1014.62 1014.21 1013.76 1013.31 1012.87
1025.07 1025.33 1025.54 1025.70 1025.77 1025.77 1025.69 1025.54 1025.34 1025.08 1024.80 1024.48 1024.16 1023.83 1023.50 1023.18 1022.87 1022.59 1022.34 1022.11 1021.90 1021.70 1021.48 1021.24 1020.94 1020.57 1020.13 1019.63 1019.06 1018.47 1017.87 1017.29 1016.75 1016.26 1015.82 1015.41 1015.02 1014.62 1014.20 1013.75 1013.25 1012.75 1012.24
1025.48 1025.69 1025.85 1025.94 1025.97 1025.92 1025.81 1025.64 1025.42 1025.16 1024.87 1024.56 1024.22 1023.86 1023.50 1023.13 1022.76 1022.42 1022.09 1021.80 1021.54 1021.28 1021.03 1020.76 1020.45 1020.07 1019.63 1019.13 1018.59 1018.01 1017.43 1016.87 1016.36 1015.88 1015.45 1015.04 1014.65 1014.23 1013.78 1013.29 1012.75 1012.19 1011.64
1025.76 1025.91 1026.01 1026.05 1026.03 1025.94 1025.81 1025.63 1025.41 1025.17 1024.89 1024.58 1024.24 1023.88 1023.48 1023.07 1022.65 1022.23 1021.84 1021.47 1021.14 1020.82 1020.52 1020.21 1019.88 1019.49 1019.06 1018.58 1018.06 1017.51 1016.97 1016.44 1015.95 1015.49 1015.07 1014.67 1014.26 1013.82 1013.35 1012.82 1012.24 1011.65 1011.06
1025.93 1026.03 1026.07 1026.06 1025.99 1025.88 1025.73 1025.55 1025.34 1025.11 1024.85 1024.56 1024.22 1023.84 1023.42 1022.96 1022.48 1022.00 1021.53 1021.09 1020.68 1020.31 1019.96 1019.62 1019.26 1018.89 1018.47 1018.01 1017.52 1017.02 1016.51 1016.02 1015.55 1015.11 1014.69 1014.28 1013.86 1013.41 1012.90 1012.35 1011.74 1011.12 1010.50
1026.04 1026.08 1026.08 1026.02 1025.93 1025.79 1025.63 1025.44 1025.24 1025.02 1024.77 1024.48 1024.14 1023.74 1023.29 1022.78 1022.25 1021.70 1021.16 1020.66 1020.19 1019.77 1019.38 1019.02 1018.66 1018.30 1017.91 1017.50 1017.05 1016.59 1016.12 1015.66 1015.21 1014.78 1014.36 1013.93 1013.49 1013.01 1012.48 1011.90 1011.28 1010.63 1010.00
1026.12 1026.13 1026.09 1026.00 1025.88 1025.72 1025.55 1025.36 1025.16 1024.93 1024.68 1024.37 1024.01 1023.58 1023.08 1022.53 1021.94 1021.34 1020.74 1020.19 1019.68 1019.23 1018.83 1018.48 1018.14 1017.81 1017.46 1017.09 1016.70 1016.28 1015.85 1015.41 1014.97 1014.53 1014.10 1013.65 1013.18 1012.67 1012.11 1011.51 1010.88 1010.23 1009.59
Thickness
5752 5749 5746 5742 5738 5734 5730 5726 5722 5719 5717 5714 5712 5710 5708 5705 5703 5700 5698 5695 5693 5691 5689 5687 5686 5684 5683 5682 5681 5680 5679 5678 5678 5677 5677 5676 5675 5675 5674 5674 5673 5673 5673
5751 5748 5744 5740 5736 5732 5728 5723 5719 5716 5712 5709 5706 5704 5701 5699 5696 5693 5690 5688 5686 5684 5683 5681 5680 5678 5676 5675 5674 5673 5672 5671 5671 5670 5670 5669 5669 5668 5667 5667 5666 5666 5666
5750 5746 5741 5737 5733 5729 5725 5720 5716 5712 5707 5703 5699 5697 5694 5691 5688 5684 5682 5680 5678 5677 5675 5674 5672 5670 5669 5668 5667 5665 5664 5663 5663 5662 5662 5661 5660 5660 5659 5658 5658 5657 5657
5746 5742 5737 5733 5729 5725 5721 5716 5711 5706 5701 5697 5692 5689 5686 5684 5681 5678 5675 5673 5672 5670 5668 5666 5664 5663 5661 5660 5659 5657 5656 5654 5654 5653 5653 5652 5651 5650 5649 5648 5648 5647 5647
5742 5737 5732 5727 5723 5719 5715 5711 5705 5701 5695 5691 5687 5683 5680 5677 5675 5672 5670 5668 5666 5665 5663 5660 5657 5655 5654 5652 5650 5648 5646 5645 5644 5643 5643 5642 5641 5639 5638 5637 5637 5636 5636
5735 5731 5725 5721 5717 5712 5707 5703 5698 5694 5689 5686 5684 5679 5676 5673 5669 5666 5664 5662 5660 5658 5656 5653 5650 5648 5646 5644 5642 5640 5638 5636 5635 5633 5632 5631 5630 5628 5626 5625 5625 5624 5624
5727 5723 5718 5714 5710 5705 5699 5695 5691 5686 5681 5679 5676 5672 5670 5668 5665 5662 5659 5656 5654 5652 5649 5646 5643 5641 5639 5637 5634 5632 5629 5628 5626 5623 5622 5620 5618 5616 5614 5613 5612 5611 5611
5717 5713 5709 5705 5700 5696 5691 5687 5684 5678 5673 5670 5668 5663 5659 5658 5656 5655 5652 5649 5646 5643 5640 5638 5636 5633 5631 5629 5626 5623 5621 5619 5616 5614 5611 5608 5606 5604 5601 5600 5598 5597 5597
5707 5703 5698 5695 5691 5687 5682 5678 5675 5671 5665 5660 5659 5656 5650 5647 5643 5644 5642 5639 5637 5634 5631 5629 5627 5624 5622 5619 5616 5614 5611 5609 5606 5603 5599 5596 5593 5590 5587 5585 5583 5583 5582
5694 5690 5686 5683 5679 5676 5672 5669 5665 5662 5657 5651 5647 5644 5641 5638 5634 5631 5630 5628 5626 5623 5620 5618 5615 5613 5610 5607 5605 5602 5600 5597 5594 5590 5586 5581 5577 5574 5572 5570 5568 5567 5566
5679 5677 5674 5670 5667 5663 5659 5656 5654 5650 5646 5641 5636 5632 5629 5625 5622 5618 5614 5612 5611 5609 5606 5604 5602 5600 5597 5595 5592 5588 5585 5582 5578 5574 5569 5565 5561 5558 5555 5553 5551 5550 5549
5665 5662 5659 5657 5653 5650 5646 5643 5640 5636 5632 5628 5623 5619 5615 5611 5607 5603 5599 5596 5593 5593 5591 5588 5586 5583 5581 5578 5575 5571 5568 5564 5560 5555 5551 5546 5543 5540 5538 5536 5534 5533 5532
5651 5648 5645 5642 5639 5636 5632 5629 5625 5621 5617 5613 5608 5604 5600 5596 5593 5589 5584 5579 5576 5575 5574 5572 5568 5565 5562 5559 5555 5551 5547 5543 5540 5536 5532 5528 5525 5522 5521 5519 5517 5516 5516
5635 5634 5631 5627 5624 5621 5617 5614 5610 5605 5602 5598 5594 5589 5584 5580 5577 5573 5568 5563 5558 5555 5553 5551 5548 5545 5542 5538 5534 5531 5527 5523 5520 5517 5514 5511 5508 5506 5504 5503 5502 5500 5499
5622 5618 5616 5613 5609 5606 5602 5598 5593 5589 5585 5581 5577 5573 5568 5564 5561 5557 5552 5548 5542 5536 5533 5532 5528 5526 5522 5520 5516 5513 5509 5506 5503 5500 5498 5495 5493 5491 5489 5488 5487 5485 5484
5608 5605 5602 5598 5594 5590 5586 5581 5576 5572 5568 5564 5560 5556 5552 5548 5544 5540 5536 5530 5525 5520 5516 5514 5511 5508 5505 5502 5499 5496 5493 5490 5488 5485 5482 5480 5478 5477 5475 5474 5473 5471 5470
5593 5589 5585 5581 5576 5571 5567 5563 5559 5555 5551 5546 5543 5540 5536 5533 5528 5524 5520 5515 5510 5505 5500 5498 5495 5493 5490 5487 5485 5482 5479 5477 5474 5471 5469 5467 5465 5464 5462 5461 5460 5459 5459
5577 5573 5568 5563 5558 5552 5547 5544 5540 5536 5533 5529 5526 5524 5521 5518 5513 5509 5504 5500 5495 5490 5486 5482 5479 5476 5474 5472 5471 5468 5466 5463 5461 5459 5457 5455 5454 5453 5452 5451 5450 5449 5448
5559 5554 5549 5544 5538 5533 5529 5525 5521 5518 5514 5512 5509 5507 5504 5501 5497 5493 5490 5485 5481 5477 5472 5468 5466 5463 5460 5459 5457 5455 5453 5450 5449 5448 5446 5445 5444 5443 5442 5441 5440 5440 5439
5540 5534 5529 5524 5519 5514 5510 5507 5504 5500 5498 5495 5494 5492 5490 5487 5484 5480 5476 5472 5467 5462 5459 5455 5453 5450 5448 5448 5445 5442 5442 5440 5439 5438 5437 5436 5435 5434 5434 5433 5433 5433 5433
5521 5516 5510 5505 5500 5496 5493 5489 5486 5484 5481 5479 5479 5478 5476 5475 5472 5468 5465 5459 5455 5450 5447 5444 5442 5440 5439 5437 5434 5433 5433 5433 5432 5431 5430 5428 5427 5427 5426 5426 5426 5427 5427
5503 5498 5492 5487 5483 5480 5476 5474 5471 5467 5466 5464 5463 5463 5462 5461 5458 5455 5452 5449 5446 5442 5438 5436 5434 5433 5433 5431 5429 5428 5427 5426 5427 5426 5422 5422 5422 5421 5421 5421 5422 5422 5422
5485 5480 5476 5471 5467 5463 5461 5459 5456 5453 5451 5450 5449 5448 5449 5448 5445 5442 5440 5439 5437 5435 5434 5431 5429 5428 5428 5428 5427 5426 5424 5421 5421 5421 5418 5419 5418 5417 5418 5418 5418 5418 5418
5469 5465 5461 5456 5452 5449 5446 5443 5441 5438 5437 5436 5436 5436 5435 5435 5434 5432 5431 5430 5430 5430 5430 5429 5427 5427 5427 5427 5425 5423 5422 5420 5418 5417 5415 5414 5415 5414 5415 5415 5415 5415 5414
5454 5450 5446 5442 5437 5434 5432 5429 5427 5425 5424 5424 5425 5425 5426 5426 5426 5425 5424 5424 5425 5428 5430 5429 5429 5428 5428 5427 5426 5423 5420 5417 5417 5416 5414 5410 5411 5411 5411 5412 5412 5412 5411
5440 5437 5433 5429 5425 5421 5419 5417 5415 5413 5412 5413 5414 5416 5418 5419 5420 5420 5420 5421 5422 5426 5428 5429 5429 5429 5428 5427 5426 5422 5419 5416 5415 5415 5413 5410 5409 5407 5409 5409 5409 5409 5408